Вернуться в каталог

STARLINK-5843

АктивенСвязьVLEO
NORAD 57072·PAYLOAD·🇺🇸 United States

Запущен Jun 22, 2023 с Vandenberg Space Force Base

Loading…

Ближайшие Пролёты (ближайшие 24 часа)

TLE

СвежийSource: CelesTrak SupGP

Эпоха: Sep 14, 2026, 20:56 UTC

1 57072C 23088AA  26257.87270833 -.00001577  00000+0 -57145-4 0  2576
2 57072  43.0012 107.8970 0001001 259.6504  18.8182 15.27571080    13

Отслеживайте STARLINK-5843 в реальном времени с AllMySat

Download on the App Store